Simultaneous Nadir Overpasses (SNOs) Predictions

Prediction of SNOs between AQUA and GOES-15 Satellite Orbit:

Table of predicted SNOs for the next 14.0 days since TLE Epoch: 9/28/2024
Index Date Time (AQUA) AQUA Lat,Lon GOES-15 Lat,Lon Distance(km) Time Diff (sec)
1 09/29/2024 10:08:29 -0.01, 62.48 -0.25, 61.29 135.70 80
2 09/29/2024 22:28:19 1.01, 57.68 0.22, 61.28 409.85 80
3 10/01/2024 22:10:36 0.07, 62.01 0.23, 61.28 83.70 80
4 10/02/2024 10:30:33 -1.12, 57.19 -0.21, 61.28 467.09 80
5 10/04/2024 10:12:48 -0.19, 61.53 -0.22, 61.28 27.56 80
6 10/06/2024 22:14:50 0.25, 61.08 0.21, 61.27 22.22 80
7 10/08/2024 21:57:01 -0.65, 65.44 0.22, 61.29 471.61 80
8 10/09/2024 10:16:58 -0.37, 60.61 -0.19, 61.31 80.14 80
9 10/11/2024 09:59:08 0.59, 64.97 -0.20, 61.33 414.32 80
10 10/11/2024 22:18:56 0.39, 60.17 0.17, 61.31 128.59 80
